Location: Trebic
(49.2170°N, 15.8830°E)
Time: 22:58:32
(UTC+01:00)

Transit 4A - Pass Details

Date: 04 November 2020
Orbit: 862 x 982 km, 66.8° (Epoch: 30 November)

Event Time Altitude Azimuth Distance (km) Brightness Sun altitude
Rises 17:26:38 0° 295° (WNW) 3,672 11.9 -9.6°
Reaches altitude 10° 17:30:20 10° 316° (NW) 2,737 10.8 -10.2°
Maximum altitude 17:34:14 16° 353° (N) 2,307 9.9 -10.9°
Drops below altitude 10° 17:38:09 10° 31° (NNE) 2,744 10.0 -11.5°
Enters shadow 17:39:30 - 40° (NE) 3,048 10.1 -11.7°
